STARLINK-1237, 45192

Orbit data source: Space-Track

STARLINK-1237, 45192 is a payload satellite owned by SpaceX/Seattle (US) in LEO that was launched on Mon, 17 Feb 2020 UTC via an FALCON 9 launch vehicle from the Air Force Eastern Test Range (AFETR). Payload-class satellites include a variety of spacecraft equipped with specific instruments for various scientific and technological missions. These include communications satellites like Starlink; space stations such as the ISS; scientific satellites like the Hubble; Earth observation satellites from companies like Planet Labs, Umbra, and HawkEye 360; GPS; miniature CubeSats for education and research; and military/defense satellites.

Loading next visibility...
Identifier
45192, 2020-012Q
Orbit
LEO
Last TLE update
7 hours ago
Origin
Manufacturer
SpaceX/Seattle
Mission
Partially operational Commercial Communications
Bus & Motor
STARLINK, Unknown motor
Mass
260 kg wet, ~248 kg dry
Launch date (UTC)
2020-02-17 (5 years ago)
Launch vehicle
FALCON 9
Launch site
Air Force Eastern Test Range (AFETR)
Object type
Payload
Rocket body
Debris
Shape & HBR
Box + 1 Pan, 8.86 m
Radar Cross Section
13.562 m², Large (>1 m²)

Expand to show TLE details & history

TLE from 7 hours ago
0 STARLINK-1237
1 45192U 20012Q   25183.91667824  .00107377  00000-0  85608-3 0  9993
2 45192  53.0563  76.7460 0002704 154.0057 166.7088 15.70361731  5836
Epoch: 2025-07-02T22:00Z
TLE epoch observation values (Epoch: 2025-07-02T22:00:00.999Z)
Latitude
-30.60637°
Longitude
159.29639°
Altitude
369.002 km
Speed
7.687 km/s
True Right ascension
03h 21m 57s
True Declination
-30° 26' 50"
Sunlit
Object was in daylight at epoch
Visualization orbit readout
Latitude
-3.47099°
Longitude
6.69549°
Altitude
357.509 km
Speed
7.697 km/s
Apparent Right ascension
18h 10m 07s
Apparent Declination
-66° 53' 06"
Sunlit
Object is in full shadow
Visualization observer readout
Local Sidereal Time
16:48:55
Azimuth
171.77° S
Elevation
-17.924°
Doppler factor
1
Orbital elements
Apogee altitude
359.962 km
Perigee altitude
356.319 km
Semi-major axis
6,736.277 km
Eccentricity
0.00027
Inclination
53.0563°
RAAN
76.746°
Arg. of periapsis
154.0057°
True anomaly
Unknown
Mean anomaly
166.7088°
Eccentric anomaly
Unknown
Mean motion
3.92567 °/min
Orbital period
91.7 mins
BSTAR
0.00085608
Loading maneuver chart data...
Loading SW <> Apogee altitude chart data...

STARLINK-1237 Visibility forecast

Observer location: undefined°, undefined°

Span
Click to sort rows by Start time (UTC) header in descending order
Start Az.
Max El. time (UTC)
Max El. Az.
Max El.
End time (UTC)
End Az.
5 mins2025-07-03 19:44:28.855Z238.371° WSW2025-07-03 19:46:28.855Z266.17° W39.261°2025-07-03 19:49:28.855Z44.765° NE
|